Race Results for
2009 Bear Mountain Spring Classic
Bear Mountain, NY
(Event Information)
View By:
Road Race on 05/11/2009

Note: Ranking points are NOT upgrade points. An explanation of ranking points can be found here.


Men - Cat 1/2

 Place Points NameCity, StateTime USAC #BibTeam
1383.57Clayton Barrows   Denver, CO4:20:39.00 120470  CRCA/Empire Cycling Team p/b Northwave
2Joll Dion-Poitras   4:20:39.00  37 Planet Energy
3390.08Keck Baker   New Kent, VA4:20:39.00 211712  Battley Harley-Davidson/Sonoma
4393.33Roger Aspholm   Haworth, NJ4:20:39.00 136195  Westwood Velo
5396.58Melito Heredia   Newyork, NY4:20:39.00 280362  56 Innovation Bike
6399.83Gavriel Epstein   Englewood, NJ4:20:39.00 179451  38 Champion System Racing/Cycles Gladiator
7403.09Adam Farabaugh   Owego Ny4:20:39.00 238217  41 Hershey Cancer Institute-GPOA-Cannondale
8Derrick St John   4:20:39.00  99 Ride with Rendall
9409.59Matt Mainer   Hinesburg, VT4:20:39.00 229526  74 Spooky/NCC/Kenda Cycling Team
10412.85Matthew Johnson (1 - Cat1)   New Haven, CT4:21:15.00 52098  CRCA/Empire Cycling
11416.10Ryan DeWald   Mount Penn, PA4:21:15.00 89187  36 Battley Harley-Davidson/Sonoma
12Rodney Santiago   4:21:15.00  95 Champion System Racing/Cycles Gladiator
13422.60Stephen Kincaid   Reading4:21:15.00 19139  66 CRCA/Empire Cycling
14Charly Vives   4:21:15.00  105 Planet Energy
15429.11Steven Gordon   Warrenton, VA4:21:15.00 224401  52 DLP Racing
16432.36Jermaine Burrowes   Brooklyn, NY4:21:15.00 164040  24 We Stand United (W.S.)
17435.62Nathaniel Ward   Lewisville, NC4:21:15.00 217857  107 Spooky/NCC/Kenda Cycling Team
18438.87Colin Sandberg   Philadelphia, PA4:21:15.00 119361  94 PA Elite Velo
19Michael Joannisse   4:21:15.00  63 Nativo Concept
20Andrew Hunt   4:21:15.00  60 Planet Energy
21Keir Plaice   4:21:15.00  89 Planet Energy
22451.88Gregory Battista   Toms River, NJ4:21:15.00 228090  10 Team Metra / Wendy's p/b Cycles 54
23Jacques Gagny   4:21:15.00  47 Nativo Concept
24William Goodfellow   4:21:15.00  51 Volkswagen-Specialized
25461.64Jose Escobar (2 - Cat1)   Washington, DC4:21:15.00 236162  40 Battley Harley-Davidson/Sonoma
26Ugo Lapierre   4:21:18.00  68 Novabrik
27468.15Peter Hurst   Norwalk, CT4:21:18.00 148404  61 Connecticut Coast Cycling
28471.40Mark Warno   Fairfax, VA4:21:18.00 601  108 IMMEDIATE MORTGAGE - ARTEMIS ELITE
29474.65Jonathan Chodroff   Kennett Square, PA4:21:18.00 230448  64 Team OUCH presented by Maxxis
30477.90Ryan Fleming   Exeter, NH4:21:18.00 184042  43 MetLife Cycling Team
31481.16Daniel Hoffman   Jersey City, NJ4:21:18.00 223024  58 Westwood Cycle/Trade Manage Capital
32484.41Nathaniel Wilson   Boulder, CO4:21:18.00 207985  109 National Capital Velo Club/Inova Health
33487.66John (Jackie) Simes   Alburtis, PA4:21:18.00 150549  98 Team Mountain Khakis
34490.92Eric Tremble   Jericho, VT4:21:18.00 212585  102 Spooky/NCC/Kenda Cycling Team
35494.17Kevin Gottlieb   San Francisco, CA4:21:18.00 226379  53 Squadra Coppi/IM SAAB
36497.42Matthew Purdy   Albany, NY4:21:42.00 156640  90 Spooky/NCC/Kenda Cycling Team
37500.67Adam Carr   Colchester, VT4:26:41.00 208854  20 Ten Speed Drive/ BH Bicycles
38503.93Ralph Muoio   Washington, DC4:26:41.00 51562  83 Kelly Benefit Strategies/LSV Amateur
39Patrice Bessy   4:27:46.00  15 CR4C Roanne
40Mathew Bell   4:27:46.00  12 Volkswagen-Specialized
41Rafael Meran   4:29:28.00  78 G.S. Mengoni U.S.A.
42Ryan Aitcheson   4:31:15.00  Jet Fuel Coffee
43Philippe Leduc   4:34:35.00  69 Novabrik
44523.44Brian Gabele   Seattle, WA4:37:2.00 257540  46 CRCA/Luzzo's Coal Fired Pizza
45526.70Blair Berbert   Washington, DC4:39:50.00 203786  14 Kelly Benefit Strategies/LSV Amateur
46529.95Salvatore Scotto DiVetta   Novi, MI4:41:55.00 234631  96 GS Mengoni U.S.A.
47533.20J Partland   New York, NY4:41:55.00 27351  85 Kissena Cycling Club
48Gabriel Geritila   4:41:55.00  120 
49539.71Kevin Putman   Wells, NY4:41:55.00 228810  91 CBRC
50542.96Paul Levis   Ossining, NY4:41:55.00 195097  70 CRCA/Blue Ribbon-Translations.com
51546.21Vladimir Borovkov   Old Bridge, NJ4:41:55.00 111890  19 CRCA/DKNY-Signature Cycles
52549.47Peter Shapiro   Lebanon, NH4:41:55.00 246180  97 NEBC/Cycle Loft/Devonshire Dental

Men - Cat 3

 Place Points NameCity, StateTime USAC #BibTeam
1423.94Zack Noonan   Kutztown, PA3:10:27.00 249618  363 Young Medalists/Team Dual Temp
2427.55Austin Moran   Redding, CT3:10:29.00 120637  358 www.confabricate.com
3431.16Andrew Bernstein   Allentown, PA3:10:29.00 204817  310 Anthem Sports Elite Development
4434.77Robert Sheffield   Kansas City, MO3:10:46.00 271875  382 Squadra Coppi/IM SAAB
5438.38Colin Prensky   New York, NY3:10:46.00 274257  372 CRCA/Sanchez Houlihan-Lokey
6441.99Filip Capala   Columbia, KY3:10:46.00 208888  319 Capala Brothers Racing
7445.60Matt Cuttler   Los Angeles, CA3:10:46.00 266432  328 CRCA/Jonathan Adler Racing
8449.21Brian Breach   Brooklyn, NY3:10:46.00 274223  314 Brooklyn Velo Force
9452.82Evan Cooper   Closter, NJ3:10:46.00 248002  325 Northeastern Hardware
10456.43Timothy Spence   Brooklyn, NY3:10:46.00 54575  387 CRCA/AXIS
11460.04Marc Adam   New York, NY3:10:46.00 228729  301 Champion System Racing
12463.65Jeremy Shirock   Emmaus, PA3:10:46.00 164378  383 South Mountain Cycles
13467.26Bradley Gunter   Houston, TX3:10:46.00 176292  338 GS Gotham/Toga Bikes
14470.87Brett Cleaver   Brooklyn, NY3:10:46.00 186936  324 Sommerville Sports World Team
15474.48Gregg Cosgrove   Pearl River, NY3:10:46.00 100656  326 Westwood Cycle/Trade Manage Capital
16478.09Tadeusz Marszalek   Rego Park, NY3:10:46.00 244093  352 Sommerville Sports
17481.70Michael Boardman   Brooklyn, NY3:10:46.00 241308  311 Signature/Rock Star
18485.31Daniel Ciano   Edison, NJ3:12:0.00 55908  322 Colavita Racing
19488.92Samuel Martinez   Ozone Park, NY3:12:28.00 120838  353 We Stand United (W.S.)
20492.53Robert Scott   Wappingers Falls , NY3:13:42.00 32000  380 Bikeway
21496.14Brian Tompkins   Newington, CT3:13:42.00 255806  389 CCNS/Pedal Power
22499.75Gregory Leach   Little Silver, NJ3:13:55.00 274737  347 Team Metra / Wendy's p/b Cycles 54
23503.36William O'Donnell   Oxford, NJ3:14:41.00 225893  364 Westwood Cycle/Trade Manage Capital
24506.97Steven Goldman   Saddle Brook, NJ3:15:36.00 214939  335 Westwood Cycle/Trade Manage Capital
25510.58Christoffel Prinsloo   Tappan, NY3:15:36.00 232344  373 CRCA/Luzzo's Coal Fired Pizza
26514.19John Landino   Ridgewood, NJ3:16:17.00 230099  346 DeathRow Velo
27517.80Thomas Shebell   Fair Haven, NJ3:16:17.00 118307  381 Rocket Racing
28521.41Adam Zimmerman   Highlands Ranch, CO3:16:17.00 248373  400 MAXPOWERCYCLING
29525.02Chas Berckmann   Brooklyn, NY3:16:25.00 233866  308 CRCA/Pacifico - Hincapie Sportswear
30528.63Ethan Atkins   San Francisco, CA3:16:25.00 224998  304 Metromint Cycling
31532.24Marcus Dahllof   Newton, MA3:22:14.00 191724  329 CRCA/Pacifico - Hincapie Sportswear
32535.85Andreas Runggatscher   Monroe, NY3:22:14.00 189842  377 Westwood Cycle/Trade Manage Capital
33539.46Chad Byers   St. Louis3:24:35.00 63375  644 Unattached
34rider unknown   3:24:35.00  378 
35546.68Kevin Brubaker   New York3:24:35.00 239671  315 CRCA/Pacifico - Hincapie Sportswear
36550.29Jonathan Marymor   New York, NY3:24:35.00 247385  354 CRCA
37553.90Damian Bolduc   South Burlington, VT3:24:35.00 201223  312 American Flatbread Cycling p/b GMBC
38557.51David Nazaroff   Upper Nyack, NY3:24:35.00 49136  361 GS Gotham
39561.12Sender Sakajani   Montclair, NJ3:24:35.00 246813  379 Strictly Bicycles Cycling
40564.73Andrew Walsh   Hackensack, NJ3:25:57.00 251325  392 CRCA/Foundation
41568.34Ross Marklein   Philadelphia, PA3:25:57.00 272367  351 University of Pennsylvania
42571.95Wesley Kline   Emmaus, PA3:25:57.00 283449  343 Young Medalists/Team Dual Temp
43575.56Radames Parissi   Ridgefield Park, NJ3:25:57.00 228468  366 Jimenez Velo Sport
44579.17sergio atocha   East Elmhurst, NY3:30:0.00 251001  305 GS Gotham/Toga Bikes
45582.78Jason Parkin   New York, NY3:30:0.00 180969  367 CRCA/Blue Ribbon-Translations.com
46586.39William Hilsman   Albuquerque, NMdsq 207976  339 Westwood Cycle/Trade Manage Capital
47590.00Brian Wolff   Sound Beach, NYdsq 92298  398 Bialostok Chiropractic

Men - Cat 4 - Group 1

 Place Points NameCity, StateTime USAC #BibTeam
1508.79james ruhl   Carleplace, NY2:38:12.00 287118  480 Unattached
2510.32Jacob Bobrow   Burlington, VT2:38:12.00 289933  410 University of Vermont
3511.85William Doyle-Capitman   New York, NY2:38:12.00 222566  427 Kissena Cycling Club
4513.39Bryan Dobes   Ridgewood, NJ2:38:12.00 268682  424 Westwood Velo
5514.92Dusty King   Conway, MA2:38:19.00 59691  444 Unattached
6516.45Jeffrey Ingraham   Brooklyn, NY2:38:19.00 214115  441 CRCA/Sanchez Houlihan-Lokey
7517.98Alistair Siebert   New York, NY2:38:19.00 263431  487 CRCA/Setanta
8519.52Christopher Gurr   New York, NY2:38:19.00 266651  437 Unattached
9521.05Matthew Peter Montesano   Minneapolis, MN2:38:19.00 277696  462 Kissena Cycling Club
10522.58James Stevens   Brooklyn, NY2:38:19.00 277525  493 GS Gotham
11524.11Robert Haber   New York, NY2:38:19.00 123941  438 CRCA/FGX Racing
12525.64Matthew Goedeke   Selkirk, NY2:38:19.00 271259  435 CBRC
13527.18Matthew Furlow   Philadelphia, PA2:38:19.00 283375  432 University of Pennsylvania
14528.71Alvin Poblacion   New York, NY2:38:19.00 261153  474 CRCA/FGX Racing
15530.24John Cutler   Washington, DC2:38:19.00 8457  419 Century Road Club Association
16531.77Patrick Dietz   San Francisco, CA2:38:19.00 252854  422 CRCA/DKNY-Signature Cycles
17533.31Shane Moran   Piermont, NY2:38:19.00 216570  463 Westwood Velo
18534.84Abraham Soler   New York, NY2:38:19.00 251037  489 CRCA/OrganicAthlete
19536.37Aaron Ross   Scottsdale, AZ2:38:19.00 163984  479 Unattached
20537.90Bryan Dougherty   Bronxville, NY2:38:19.00 216648  426 Kissena Cycling Club
21539.44Phil Penman   New York, NY2:38:58.00 234885  472 CRCA/Teany Cycling
22540.97Rob Spatola   Yardley, PA2:38:58.00 282327  491 Young Medalists/Team Dual Temp
23542.50chris thormann   New York, NY2:39:8.00 277940  495 Kissena Cycling Club
24544.03George Mastrogiannis   Woodside, NY2:39:8.00 225487  455 CRCA/Sanchez Houlihan-Lokey
25545.56Kimani Nielsen   Woodbridge, VA2:39:8.00 201175  466 CRCA/Luzzo's Coal Fired Pizza
26547.10Alexander Barouh   Brooklyn, NY2:39:25.00 286939  404 Kissena
27548.63Jimmy Andrello   New York, NY2:39:49.00 230311  401 CRCA/Foundation
28550.16Ira Blumberg   New York, NY2:39:49.00 264625  409 CRCA / Setanta
29551.69benjamin woodbury   Kansas City, MO2:41:36.00 273469  498 Brooklyn Velo Force
30553.23Zachary Koop   Ridgefield Park, NJ2:42:56.00 246254  445 Team Campmor
31554.76Benjamin Fackler   New York, NY2:44:16.00 269252  429 CRCA/NYVelocity
32556.29Jeffrey Baumgardner   Brooklyn, NY2:45:5.00 250453  405 CRCA/Kingpin Racing-HJD
33557.82John Miller   Brooklyn, NY2:46:57.01 209050  461 Champion System Racing
34559.35Mark Spottiswood   Merrick, NY2:47:20.00 187122  492 GBSC/Bialostok Chiropractic CT
35560.89Bogdan Blai   New York, NY2:48:1.00 246474  408 spincityteam.net
36562.42Benjamin George   Newhaven, CT2:48:1.00 287370  434 Connecticut Coast Cycling
37563.95Leonides Lopez   New York, NY2:49:14.00 255481  452 El PuenteThe Cycling Bridge
38565.48Karl Nelson   Coram, NY2:49:40.00 263181  464 East End/Kreb Cycle
39567.02John O'Fallon   Redding , CT2:53:43.00 253617  467 Connecticut Coast Cycling
40568.55Andrew Harris   Lititz, PA2:53:43.00 245643  439 Young Medalists/Team Dual Temp
41570.08Dan Reiners   Brooklyn, NY2:53:43.00 249226  476 Kissena Cycling Club
42571.61Ryan Phelan   Lyndhurst, NJ2:53:43.00 257463  473 Jimenez Velo Sport
43573.15David Miller   Stanford, CA2:53:43.00 217427  460 Unattached
44574.68Steven Marmo   Astoria, NY2:53:43.00 259124  453 CRCA/Setanta
45576.21Etienne Shanon   New York, NY2:53:43.00 246466  486 Century Road Club Association
46577.74Jeffrey Chen   Brooklyn, NY2:53:43.00 71466  443 Keirin.US
47579.27Ian Byrd   Chicago, IL2:53:43.00 151532  414 Century Road Club Association
48580.81Matthew Jackson   Peekskill, NY2:53:43.00 139827  442 Unattached
49582.34Kyle Herlihy   Stamford, CT2:57:42.00 278135  440 Connecticut Coast Cycling
50583.87Steve De Jesus   West New York, NJ2:59:36.00 255972  420 CRCA/El Puente
51585.40Gideon Sorkin   New York, NY3:2:41.00 253337  490 Kissena Cycling Club
52586.94Wai Hung Fong   New York, NY3:2:41.00 620  430 Kissena Cycling Club
53588.47sorin ciurea   New York, NY3:11:33.00 255193  417 VO2maxOut.com
54590.00Kevin Porter   Norwalk, CT3:17:49.00 85878  475 Connecticut Coast Cycling

Men - Cat 4 - Group 2

 Place Points NameCity, StateTime USAC #BibTeam
1489.50Danny Inoa   Brooklyn, NY2:40:55.00 275631  847 Brooklyn Velo Force
2491.59mitchell jacaruso   New York, NY2:40:57.00 282121  849 CRCA/NYVelocity
3493.69Craig Fleischer   Port Jefferson Station, NY2:40:57.00 133263  820 East End/Kreb Cycle
4495.78Danny Habig   Massapequa, NY2:40:57.00 259066  835 CRCA/Luzzo's Coal Fired Pizza
5497.88Adam Rosenthal   New York, NY2:40:57.00 248088  873 CRCA/Kingpin Racing-HJD
6499.97Jaime Garcia   New York, NY2:40:57.00 70471  826 CRCA/Pacifico - Hincapie Sportswear
7502.06David Richman   Brooklyn, NY2:40:57.00 90680  870 CRCA/Kingpin Racing-HJD
8504.16Neil Cooper   Brooklyn, NY2:40:57.00 276219  816 CRCA/Setanta
9506.25Matthew Doran   Nyack, NY2:40:57.00 268390  819 Global Locate
10508.34Edward Zimmermann   Brooklyn, NY2:40:57.00 242219  899 We Stand United (W.S.)
11510.44Rick Hall   New York, NY2:40:57.00 218475  837 CRCA/Teany Cycling
12512.53Thierry Blanchet   Castleton, NY2:40:57.00 190039  918 Cannondale MTB
13514.62Niko Triantafillou   New York, NY2:40:57.00 242612  889 CRCA/Teany Cycling
14516.72Timothy Voake   New York, NY2:40:57.00 269145  893 Century Road Club Association
15518.81Paul Italiano   Stony Point, NY2:41:12.00 271221  848 GS Retro Velo
16520.91Wayne Tice   New Windsor, NY2:42:57.00 226401  888 CCI/Bryan's Bikes
17523.00Raul Galliano   Secaucus, NJ2:43:20.00 242817  825 Westwood Cycle/Trade Manage Capital
18525.09Benjamin Hughes   New York2:43:20.00 204305  844 CRCA/Pacifico-Hincapie Sports
19527.19Kuria Njenga   Nyack, NY2:43:29.00 206471  862 Westwood Cycle/Trade Manage Capital
20529.28Guillermo Weinmann   New York, NY2:43:29.00 231779  896 Kissena Cycling Club
21531.38James Mernin   Ridgewood, NJ2:43:29.00 209408  860 CRCA/Kingpin Racing-HJD
22533.47Todd Noonan   Sheffield, AL2:43:29.00 242255  863 Kutztown Cutters
23535.56Christian Forsyth   New York, NY2:43:29.00 220756  822 CRCA/Setanta
24537.66Thomas Mattioli   Brooklyn, NY2:44:46.00 113911  857 CRCA/Western Union
25539.75Todd Brilliant   New York, NY2:45:14.00 116974  808 CRCA/Setanta
26541.84David Carr   New York, NY2:45:40.00 256699  814 CRCA/Setanta
27543.94Etsu Taniguchi   New York, NY2:45:54.00 237492  885 CRCA / Teany Cycling
28546.03Jerry Truppelli   Ringoes, NJ2:45:54.00 224743  891 Pure Energy Racing
29548.12David Junius   Lanark, IL2:49:43.00 188026  852 Westwood Cycle/Trade Manage Capital
30550.22Gregory Weinberg   New York, NY2:49:43.00 200719  895 CRCA/Pacifico - Hincapie Sportswear
31552.31Eloy Anzola   Brooklyn, NY2:49:52.00 198908  804 Kissena Cycling Club
32554.41N/A   New York City2:52:17.00 252717  890 CRCA/FGX Racing
33556.50Andrew Lawrence   New York, NY2:53:28.00 254960  855 CRCA/FGX Racing
34558.59leszek sniadowski   Staten Island, NY2:54:4.00 279704  881 CRCA/OrganicAthlete
35560.69Charles Spell   Brooklyn, NY2:55:0.00 241944  882 CRCA/Kingpin Racing - HJD
36562.78Gregory Fowlkes   New York, NY2:55:0.00 195546  823 CRCA/Rapha Racing
37564.88andrew gillis   Greenwich, CT2:59:1.00 280014  829 USI
38566.97Patrick Grehan   Rockville Centre, NY2:59:20.00 277702  833 Kissena Cycling Club
39569.06Mike Hard   New York, NY2:59:20.00 257089  838 CRCA/DKNY-Signature Cycles
40unknown rider   2:59:20.00  4b? 
41573.25David Regen   New York, NY2:59:43.00 203741  869 CRCA/OrganicAthlete
42575.34Christopher Schwenker   Westhampton Beach, NY3:7:37.00 274837  877 East End/Kreb Cycle
43577.44Mario Sierra   Maspeth, NY3:9:2.00 193175  879 Century Road Club Association
44579.53Nelson Cardenas   Union City, NJ3:9:2.00 225585  811 Strictly Bicycles Cycling
45581.62Joseph Wiener   Brooklyn, NY3:9:2.00 235820  897 Kissena Cycling Club
46583.72Juan Aracena   Dumont, NJ2:57:10.00 119516  805 Westwood Cycle/Trade Manage Capital
47585.81Michael Dimson   Bedford, NY3:13:55.00 254486  818 Tarmac Cycling
48587.91Gregory McCoy   Cold Spring, NY3:14:57.00 263593  859 Tarmac Cycling
49590.00Eric Carlson   Harrington Park, NJ3:19:0.00 80344  813 Westwood Cycle/Trade Manage Capital

Men - Master - MR - 35-44

 Place Points NameCity, StateTime USAC #BibTeam
1446.05David Freifelder   Glenwood, NJ2:31:41.00 200872  227 Westwood Cycle/Trade Manage Capital
2449.00Kenneth Harris (1 - Cat2)   New York, NY2:31:41.00 204430  279 CRCA/Jonathan Adler Racing
3451.95Edward Angeli   Southington, CT2:31:41.00 91227  202 TARGETRAINING
4454.90Edward Ceccolini   Pompton Lakes, NJ2:31:41.00 54209  216 
5457.85Troy Kimball   Austin, TX2:31:51.00 118576  239 Westwood Cycle/Trade Manage Capital
6460.80Will Schneider   New York, NY2:31:51.00 106752  264 VO2maxOut.com
7463.75Stephen Badger   Roxbury, CT2:31:51.00 62085  204 TARGETRAINING
8466.70Gregg Galletta   Dobbs Ferry, NY2:31:51.00 97363  229 CRCA - Pacifico/Hincapie Sportswear
9469.64Max Lippolis   Pound Ridge, NY2:31:51.00 126915  242 TARGETRAINING
10472.59Karl Rahn   New York, NY2:31:51.00 92839  254 CRCA/Empire Cycling Team p/b Northwave
11475.54Kurt Gustafsson   Brooklyn, NY2:31:51.00 14451  232 CRCA / AXIS
12478.49Terry Totemeier   Simsbury, CT2:31:51.00 96443  270 Greater Hartford Cycling Club
13481.44Brad Ober   Lancaster, PA2:31:51.00 76653  248 Spinners Cycling
14484.39Mark Alden   Montvale, NJ2:31:51.00 1319  201 CRCA/Blue Ribbon-Translations.com
15487.34Keith Reeder   Annapolis, MD2:31:51.00 210369  256 Team Latitude-ABRT
16490.29Robert Lattanzi   New York, NY2:31:51.00 157989  240 Westwood Cycle/Trade Manage Capital
17493.24David Taylor   New York, NY2:31:51.00 172065  268 CRCA/Blue Ribbon-Translations.com
18496.19Fernando Ferreira (2 - Cat2)   Poughkeepsie, NY2:31:51.00 53209  226 uniao de ciclismo de leiria
19499.14Ralf Warmuth   Piscataway, NJ2:31:51.00 231788  274 Westwood Cycle/Trade Manage Capital
20502.09Mark Pohndorf   Pottersville, NJ2:32:49.00 237877  253 Colavita Racing
21505.04Pascal Sauvayre   New York, NY2:33:5.00 64894  263 CRCA/Pacifico - Hincapie Sportswear
22507.99Matthew Howard   New York, NY2:33:36.00 192622  234 CRCA/Empire Cycling
23510.94Humberto Cavalheiro   Centeral Vally, NY2:33:43.00 192485  215 Uniao ciclista do SobradoPortugal
24513.88Ramon Benitez   Glenwood, MD2:33:43.00 3304  277 IMMEDIATE MORTGAGE - ARTEMIS ELITE
25516.83Mark Miller   Hurley, NY2:33:43.00 56699  245 Favata's Table Rock Tours
26519.78Kevin Keane   Hopewell, NJ2:33:43.00 225711  238 Skylands Cycling
27522.73Marc Cesare   Brooklyn, NY2:33:43.00 59874  217 Wonder Wheel
28525.68Carlos Restrepo   Wilton, CT2:33:43.00 161557  258 TARGETRAINING
29528.63Armand Della Monica   Litchfield, CT2:34:1.00 198087  222 CRCA/Empire Cycling
30531.58Dzmitry Buben   Hamden, CT2:34:1.00 225880  212 CCB Racing Team
31534.53Herb Jimenez   Montclair, NJ2:34:1.00 65794  235 Jimenez Velo Sport
32537.48Scott Bodin   Nanuet, NY2:34:55.00 45094  209 TARGETRAINING
33540.43David Wilson   Morristown, NJ2:36:1.00 38514  275 Central Jersey Cycling Team
34543.38Roger Friedman (1 - Cat3)   Brooklyn, NY2:37:1.00 193263  228 CRCA/DieHard-Think Racing
35546.33George Suter   New York, NY2:37:1.00 109196  267 CRCA/DieHard-Think Racing
36549.28Bryan Vaughan   Burke, VA2:37:14.00 129811  278 IMMEDIATE MORTGAGE - ARTEMIS ELITE
37552.23Jesus Espitia   Ossining, NY2:42:25.00 89148  224 CRCA/Blue Ribbon-Translations.com
38555.18Kevin Bessett   Richmond, VT2:42:49.00 69326  208 GMBC/Catamount
39558.12William Wisse   Toms River, NJ2:43:50.00 38702  276 Team Norwood Agency-The Peddler
40561.07Anthony O'Malley   North Bergen, NJ2:43:50.00 206819  247 CRCA/DieHard-Think Racing
41564.02Glenn Babikian   Sugar Loaf, NY2:47:16.00 242851  203 Westwood Cycle/Trade Manage Capital
42rider unknown   2:50:29.00  283 
43569.92Claude Raineault   Underhill, VT2:50:29.00 207347  255 American Flatbread Cycling p/b GMBC
44unknown rider   2:50:29.00  m35? 
45rider unknown   2:56:43.00  282 
46578.77Paul Coluccio   Massapequa, NY2:56:43.00 66269  219 East End/Kreb Cycle
47581.72John Tomlinson (3 - Cat2)   New York, NY2:56:43.00 46672  269 CRCA/Deno's Wonder Wheel Cycling
48584.67Cliff Saper   New York, NY2:56:52.00 170995  262 CRCA/Sanchez Houlihan-Lokey
49587.62Marc Bertucco   New York, NY2:58:14.00 44238  207 ABD Cycle Club

Men - Master - MR - 45-49

 Place Points NameCity, StateTime USAC #BibTeam
1471.72Mark Sumner   Clifton Park, NY1:55:39.01 114907  746 Clinton Cycling Club
2475.13Carl Reglar   Mount Vernon, NY1:55:41.00 281196  737 Unattached
3478.54Jon Orcutt   Brooklyn, NY1:59:2.00 185052  731 CRCA/AXIS
4481.95John McGovern   Kingston, NY1:59:2.00 57889  722 Hudson Valley Velodrome
5485.36Thomas Butler   Delmar, NY2:32.00 190793  702 Clinton Cycling Club
6488.77Kevin Power (1 - Cat3)   Ewing, NJ2:32.00 60606  733 Pure Energy Racing
7492.18M Andrew Ruiz   Delmar, NY2:32.00 47271  738 Clinton Cycling Club
8495.59Gerard O' Shea   Clinton, CT2:32.00 234576  730 Clinton Cycling Club
9499.00Eutimio Quintero   Maspeth, NY2:32.00 193174  734 CRCA/Foundation
10502.41Morgan Stebbins   Garrison, NY2:32.00 33904  743 Yorktown Cycles
11505.83Thomas Luzio   Mamaroneck, NY2:32.00 187590  718 Wonder Wheel
12509.24Joe Straub   Middletown, NY2:32.00 203530  744 Westwood Cycle/Trade Manage Capital
13512.65John Funk   South Kent, CT2:32.00 12562  711 Cycle Fitness Cycling Club
14516.06Haluk Sarci   Cresskill, NJ2:32.00 169549  739 Strictly Bicycles Cycling
15519.47Paul Carbonara   Brooklyn, NY2:32.00 60376  705 CRCA/AXIS
16522.88James Escobar   Saint Augustine, FL2:1:53.00 51385  710 Honeywell Cycling
17526.29Thomas McMenamin   Titusville, NJ2:1:53.00 150783  723 Pure Energy Racing
18529.70John Raheb   Montvale, NJ2:4:36.00 184269  736 SignatureCycles/Rockstar Games
19533.11Andy Keesler   Hillsborough, NJ2:4:36.00 231489  715 Century Road Club Of America
20536.52Carlos Quintero   Wappingers Falls, NY2:5:22.00 180582  735 Cafeteros Cycling Club
21539.93Vinny Vicari   New York, NY2:6:56.00 143373  748 CRCA/Sanchez Houlihan-Lokey
22543.34Michael Joseph (2 - Cat3)   Maplewwood, NJ2:6:56.00 219928  712 Colavita Racing
23546.75Jan Micko   Glen Cove, NY2:7:50.00 72490  726 Bialostok Chiropractic
24550.16Greg Campi   Shrewsbury, NJ2:7:52.00 113096  703 3D Racing Team
25553.57Chris Mooney   Livingston, NJ2:7:52.00 246574  727 Unattached
26556.98Matthew Snow   Fairfield, CT2:7:52.00 112195  741 TREK Fairfield
27560.39Jackson Wandres   Brooklyn, NY2:8:7.00 46043  749 Deno's Wonder Wheel Cycling
28563.80Dusan Strika   Parlin, NJ2:9:34.00 61737  745 Kissena Cycling Club
29rider unknown   2:12:10.00  756 
30570.62David Parker   Wading River, NY2:19:31.00 236021  732 SignatureCycles/Rockstar Games
31rider unknown   2:19:31.00  755 
32577.45Jon Barovick   New York, NY2:20:0.00 51968  709 CRCA/DKNY-Signature Cycles

Men - Master - MR - 60-99

 Place Points NameCity, StateTime USAC #BibTeam
1540.00Donald Hard   Marlton, NJ1:27:39.00 125624  119 Summit
2565.00Scott Phillips   New Canaan, CT1:29:36.00 145267  116 CRCA/Foundation
3590.00Bob Ludecke   Milldale, CT1:35:58.00 215502  118 Laurel Bicycle Club

Men - Masters - 50-54

 Place Points NameCity, StateTime USAC #BibTeam
1413.67William Thompson   West Hartford, CT2:32.00 35402  639 Clinton Cycling Club
2419.54Douglas Crane   Norwalk, CT2:32.00 108078  611 Cafeteros Cycling Club
3425.42Alvaro Betancur   White Plains, NY2:32.00 74124  604 Cafeteros Cycling Club
4431.30Kevin Haley   Vernon, NJ2:32.00 173214  616 SignatureCycles/Rockstar Games
5437.18Jeffrey Cordisco   Kennett Square, PA2:32.00 197994  610 SignatureCycles/Rockstar Games
6443.05Mike Allaire   North Salem, NY2:32.00 115222  602 Unattached
7448.93Scott Hodder   Oceanport, NJ2:32.00 46178  622 CRCA/DKNY-Signature Cycles
8454.81Alan Blanchard   New City, NY2:32.00 255105  605 Westwood Velo
9460.69Robin Kinney   Skillman, NJ2:1:45.00 233709  641 Somerset Wheelmen
10466.57Roman Paczka   Sarasota, FL2:1:53.00 181880  632 MainLIne Cycling
11472.44Scott Klion (1 - Cat3)   New York, NY2:1:53.00 152618  625 Competitive Edge Racing Team
12478.32Dennis Humphrey   Delmar, NY2:1:53.00 190803  623 Capital Bicycle Racing Club
13484.20William Cantler   Brooklyn, NY2:2:39.00 200565  608 Deno's Wonder Wheel Cycling
14490.08Kenneth Hochman   Brooklyn, NY2:5:22.00 183268  621 Deno's Wonder Wheel Cycling
15495.95Jose Hernandez   Linden, NJ2:6:56.00 141575  620 Colavita Racing Inc.
16501.83Charles Litty   Southbury, CT2:6:56.00 148424  628 Bethel Cycle Sport Club
17rider unknown   2:6:56.00  643 
18513.59Andrew Buchanan   Stanhope, NJ2:7:46.00 248803  607 Skylands Cycling
19519.47carlos cruz   Germantown, MD2:8:7.00 267564  642 colombia
20525.34Michael Innusa   Mt Sinai Ny 117662:8:24.00 221897  624 East End/Kreb Cycle
21unknown rider   2:8:31.00  m50? 
22537.10Bruce Schwartz   Armonk, NY2:10:37.00 241442  636 SignatureCycles/Rockstar Games
23542.98Dean Brizel   New York, NY2:12:0.00 186564  606 CRCA/Sanchez Houlihan-Lokey
24548.86Vincent Moran   Hackensack, NJ2:14:0.00 252003  631 Westwood Cycle/Trade Manage Capital
25554.73G Douglas Allen   Middletown, NY2:14:0.00 157577  603 SignatureCycles/Rockstar Games
26560.61Jeffery Knisely   Port Chester, NY2:14:8.00 46869  626 Cafeteros Cycling Club
27566.49Robert Stern   New York, NY2:23:35.00 47733  637 CRCA/Sid's-Cannondale
28572.37Marc Tatar   Providence, RI2:24:45.00 245317  638 Bikeworks/Hallamore
29578.24Damian DiCostanzo   Rye, NY2:25:47.00 181617  613 Deno's Wonder Wheel Cycling
30584.12John Hatheway   Brooklyn, NY2:28:19.00 232006  617 Wonder Wheel
31590.00William Crowley   New York, NY2:28:25.00 139032  612 CRCA/DieHard-Think Racing

Men - Masters - 55-59

 Place Points NameCity, StateTime USAC #BibTeam
1482.05Horacio Ahumada   White Plains, NY2:6:56.00 60985  900 Cafeteros Cycling Club
2491.03Nate Morgenstern   Waldwick, NJ2:6:56.00 271446  908 Montclair Cyclists
3500.01Cleofus Price   Bronx, NY2:7:52.00 227143  910 GS Gotham/Toga Bikes
4508.99David Kliger   Cottonwood Hgts., UT2:7:52.00 61493  902 Cafeteros Cycling Club
5517.97Rick Malkames   Scarsdale, NY2:8:44.00 178714  914 Unione Sportiva Italiana
6526.96John Lord   Brewster, NY2:11:46.00 49358  906 Wonder Wheel
7535.94Hajo Thiele   Larchmont, NY2:11:46.00 91831  913 Cafeteros Cycling Club
8544.92Reb Cole   Mohegan Lake, NY2:14:8.00 60946  901 Cafeteros Cycling Club
9553.90Alan Lesage   South Burlington, VT2:16:17.00 185190  905 Unattached
10562.88Reed Rubey   New York, NY2:19:5.00 206971  911 CRCA/Teany Cycling
11571.86Brian Murphy   Edgewater Park, NJ2:26:25.00 237827  909 Summit Cycling Club
12580.84Steven Korff   Brooklyn, NY2:35:54.00 186812  903 Kissena Cycling Club

Men - Junior - JR - 15-18

 Place Points NameCity, StateTime USAC #BibTeam
1389.99Benjamin Salibra   Fayetteville, NY2:1:43.00 233370  944 CRCA/Junior Development
2398.69Matthew Spinks   Layton, NJ2:1:43.00 241672  946 Team Metra / Wendy's p/b Cycles 54
3407.38Ricky Gargiulo   Summit, NJ2:1:43.00 231560  915 Colavita Racing Inc.
4416.08Paul Lynch   Colchester, CT2:1:43.00 211959  919 CL Noonan/Coast to Coast/KAM
5424.77Michael Reidenbach   Emmitsburg, MD2:1:43.00 212942  942 IMMEDIATE MORTGAGE - ARTEMIS ELITE
6433.47Jacob Gorke   Manlius, NY2:3:31.00 260291  930 CRCA/Junior Development
7442.17Cooper Ray   Brooklyn, NY2:3:31.00 275082  941 GS Gotham/Toga Bikes
8450.86David Novak   Tunkhannock, PA2:4:13.00 268729  937 Sicklers
9459.56Nathan Piche   Hoosick Falls, NY2:4:13.00 277471  940 Farm Team Cycling
10468.25Brandon Milet   Cambridge, NY2:10:23.00 276068  935 Farm Team Cycling
11476.95David Stires   Bridgewater, NJ2:10:23.00 247213  947 Century Road Club Of America
12485.65Eli Mernit   Bronx, NY2:10:23.00 270121  934 GS Gotham/Toga Bikes
13494.34John Novak   Tunkhannock, PA2:10:23.00 267764  938 Sicklers
14John Carden   2:10:23.00  923 Bikesports
15511.74john Nesbit   Nyc, NY2:14:31.00 291765  936 GS Gotham/Toga Bikes
16520.43James Geddis   Jackson, NJ2:14:31.00 274804  928 3D RacingTeam / Tom's Atlantic Cyclery
17529.13Zachary Bender   Glen Rock, NJ2:14:31.00 250355  922 Team Cyclesport
18537.82Daneel Schaechter   Philadelphia, PA2:17:38.00 270762  945 CRCA/Junior Development
19546.52Andrew Celin   Hamilton, NJ2:21:3.00 244880  925 Team Atlantic
20555.22Max Novitsky   Dix Hills, NY2:21:3.00 281507  939 Runner's Edge
21563.91Leon Lyakovetsky   Norwalk, CT2:21:25.00 257599  920 Connecticut Coast Cycling
22572.61Michael Liegey   Huntington, NY2:21:25.00 290758  921 Unattached
23581.30Teddy Kozlowski   Bridgewater, NJ2:36:14.00 241677  933 Team Vortex
24590.00Barry Weinstein   Washington, DC2:46:17.00 274174  949 CRCA/Junior Development

Women - Cat 1/2/3

 Place Points NameCity, StateTime USAC #BibTeam
1414.95Evelyn Stevens   San Francisco, CA2:42:21.00 272861  185 CRCA/Radical Media
2419.60Beth Miller   Delmar, NY2:42:48.00 239476  172 Anthem Sports Women's Cycling
3Emma Petersen   2:45:56.00  176 Team Ultralink
4428.89Jennifer Rasmusson   Ashburn, VA2:45:56.00 237733  567 HPC
5433.53Audrey Friedrichsen Scott   Beacon, NY2:45:56.00 273110  161 Anthem Sports Women's Cycling
6Natasha Elliot   2:45:56.00  158 Specialized-Mazda-Samson
7442.83Alejandra Madrinan   Boonton, NJ2:45:56.00 196777  169 CRCA/Comedy Central-Sid's Bikes
8447.47Mary Zider   Barre, VT2:46:5.00 212025  189 Specialized-Groupe Conseil Samson
9452.12Andrea Luebbe   Lafayette Hill, PA2:46:5.00 250385  168 Pabst Blue Ribbon
10Karol-Ann Canuel   2:46:11.00  153 Specialized-Mazda-Samson
11461.41Ann Marie Miller   New York, NY2:47:25.00 127444  190 CRCA/Sanchez Houlihan-Lokey
12466.06Kate Veronneau   Wayne, PA2:51:42.00 264024  187 Altarum Women's Cycling Team
13470.70Melissa Ross   Phoenix, AZ2:54:5.00 212478  183 
14475.35Anna Milkowski   Andover, MA2:55:22.00 145201  171 Teamsports Inc.
15Veronique Bilodeau   2:55:22.00  151 Equipe Cascades - ABC Cycles
16484.64Sarah Sauvayre   New York, NY2:58:4.00 118465  155 CRCA/Comedy Central-Sid's Bikes
17Lucie Poulin   2:58:4.00  178 Equipe Cascades - ABC Cycles
18493.94Dale Malkames   Scarsdale, NY2:58:4.00 185300  170 Unione Sportiva Italiana
19498.58Maria Quiroga   New York, NY2:58:4.00 200041  180 CRCA/Radical Media
20Kyla Rollinson   2:58:53.00  182 Specialized-Mazda-Samson
21507.87Laurel Gitlen   New York, NY2:58:53.00 230096  192 CRCA/Jonathan Adler Racing
22512.52Rebecca Koh   New York, NY2:58:53.00 180479  166 CRCA/Comedy Central-Sid's Bikes
23517.17lisa force   Jersey City, NJ2:58:53.00 249622  160 CRCA/Comedy Central-Sid's Bikes
24Elisa Gagnon   2:58:53.00  162 Specialized-Mazda-Samson
25526.46Kristine Church   Philadelphia, PA2:58:53.00 142023  156 Human Zoom Cycling
26531.11Ashley Prine   Brooklyn, NY2:58:53.00 247237  179 CRCA/Radical Media
27535.75Cecelia Pleva   New York, NY3:7:20.00 249462  177 CRCA/Radical Media
28540.40Caryl Gale   Hoboken, NJ3:9:52.00 60259  163 Deno's Wonder Wheel
29545.04Nonnie Howard   Phoenixville, PA3:9:52.00 132499  164 Pabst Blue Ribbon
30Julia Farell   3:15:16.00  159 Team Ultralink
31Catherine Rainville   3:27:40.00  181 

Women - Cat 3/4

 Place Points NameCity, StateTime USAC #BibTeam
1435.26Meredith Ehn   Frenchtown, NJ2:12:20.00 142893  512 Anthem Sports Women's Cycling
2438.55Debra Killmon   New York, NY2:12:20.00 259334  526 CRCA/DKNY-Signature Cycles
3441.84Dara Kiese   New York, NY2:12:20.00 264746  525 CRCA/Radical Media
4445.14Erica Adelberg   New York, NY2:12:20.00 242487  501 CRCA/Radical Media
5448.43Sarah Krzysiak   Utica, NY2:12:20.00 233739  528 Syracuse Bicycle - SpokePost.com
6451.72Fabienne Gerard   New York, NY2:12:20.00 281037  519 CRCA/Teany Cycling
7455.01Nancy Ford   Greenwich, CT2:12:20.00 189722  517 Unione Sportiva Italiana
8458.31Ruth Sherman   Spencer, NY2:12:20.00 278482  551 Corning Race Team
9461.60Robin Shea   Manorville, NY2:12:20.00 59757  550 East End/Kreb Cycle
10464.89Heidi Reijm   Brooklyn, NY2:12:20.00 250616  546 Kissena Cycling Club
11468.18Edie Perkins   Brooklyn, NY2:12:20.00 264163  543 Kissena Cycling Club
12471.48Bryna Nestor   Troy, NY2:12:20.00 209883  539 Anthem Sports Women's Cycling
13474.77Donna McMahon   Farmingdale, NY2:12:20.00 264367  536 GBSC/Bialostok Chiropractic CT
14478.06Tracy Wargo   New York, NY2:12:45.01 215383  561 CRCA/Teany Cycling
15481.35Susanna Piller   Plattsburgh, NY2:13:0.00 251680  544 Team Placid Planet
16484.65Kristin Lotito   West Hempstead, NY2:13:33.00 271858  532 CRCA/Third Nature
17487.94Lauren Zucker   Brooklyn, NY2:13:33.00 257351  564 CRCA/Teany Cycling
18491.23Anneliese Haines   Newyork, NY2:14:50.00 281541  521 CRCA/NYVelocity
19494.52Maria Murphy   West Nyack, NY2:15:11.00 174111  538 GS Retro Velo
20497.81Xieyue (Pan Pan) Fan   Atherton, CA2:15:11.00 273441  514 CRCA/Sanchez Houlihan-Lokey
21501.11Amy Kneale   Dewitt, NY2:15:25.00 241641  527 Syracuse Bicycle/Spokepost.com
22Elaine Molinaro   2:15:46.00  566 
23507.69Gabrielle Fisher   Bronx, NY2:16:25.00 264788  516 CRCA/Third Nature
24510.98Stacey Barbossa   Mountainside, NJ2:18:50.00 290272  504 Montclair Cyclists
25514.28Kendall Dwyer   New York, NY2:18:55.00 241168  510 CRCA/Comedy Central-Sid's Bikes
26517.57Margaret Moore   Allentown, PA2:20:40.00 188961  537 Portland Velo Club/Cyclemania
27520.86Michelle Hughes   Jackson Heights, NY2:20:40.00 279735  522 Kissena Cycling Club
28524.15Dori Buckethal   Glenwood, MD2:20:40.00 257747  506 Artemis
29527.45Jennifer Solomon   East Setauket, NY2:20:40.00 266704  554 East End/Kreb Cycle
30530.74Peta Takai   Marina Del Rey, CA2:21:16.00 249299  556 CRCA/Teany Cycling
31534.03Andrea Urist   Brooklyn, NY2:21:24.00 200503  558 CRCA/Third Nature
32537.32Cindy Ma   New York, NY2:21:34.00 127969  533 CRCA/Sanchez Houlihan-Lokey
33540.61Renee Engelhardt   New York, NY2:23:58.00 287624  513 CRCA/NYVelocity
34543.91Annemarie Donovan   New York, NY2:27:56.00 271668  509 CRCA/Teany Cycling
35Stephanie Buslof   2:28:54.00  565 CRCA/Teany Cycling
36550.49Colleen Conway   New York, NY2:29:14.00 258039  508 CRCA/Teany Cycling
37Mary Lang   2:30:19.00  529 Retro Velo
38557.08Patricia Marzi   Kutztown, PA2:30:58.00 191454  534 Salamander Racing
39560.37Jennifer Saunders   Newyork, NY2:30:58.00 286855  547 CRCA/NYVelocity
40563.66Nicole Vink   Newcanaan, CT2:30:58.00 287440  559 New Canaan Triathlon Club
41566.95Julie Wright   Newton Upper Falls, MA2:30:58.00 289289  563 Sturdy Girl Cycling
42570.25Elizabeth McAlpin   West New York, NJ2:34:57.00 256399  535 Century Road Club Association
43573.54Molly Hurford   Hampton, NJ2:35:44.00 289723  523 Rutgers University-New Brunswick/Piscata
44576.83Caroline Gaynor   Long Island City, NY2:40:6.00 223163  518 CRCA/PROASSHIT.dk
45580.12Lauren Andrews   New York, NY2:40:6.00 198332  502 NYU
46583.42stacy jargowsky   Newyork, NY2:40:21.00 282018  524 CRCA/SBR Multisports
47586.71Lindsey Paluska   Brooklyn, NY2:49:54.00 271611  542 CRCA/NYVelocity
48590.00Cathy Wilson   Middle Island, NY3:1:7.00 163898  562 GBSC/Bialostok Chiropractic CT

Report missing or incorrect license numbers

Volkswagen
USACDFCUOREBonk BreakerShimanoSpySierra Nevada
UCI USA Cycling is the official governing body for all disciplines of competitive cycling in the United States. The 501c3, membership-based organization aims both to achieve sustained success in international cycling competition and to grow competitive cycling in America while delivering an exceptional customer experience.
View Children's Online Privacy Protection Policy
US Olympic Committee